Date String (YYYY-MM-DD hh:mm:ss) UTC,Instrument flags,Ambient pressure (hPa),Sample flow (lpm),Bypass flow (lpm),Sample temperature (°C),Ambient temperature (°C),ASC tube jacket temperature (°C),LED temperature (°C),Box temperature (°C),Sample RH (%),Span deviation,Mass concentration (μg/m³),Mass concentration (μg/m³),Mass concentration (μg/m³)
DateTimeUTC,F1_M11,P_M11,Q1_M11,Q2_M11,T1_M11,T2_M11,T3_M11,T4_M11,T5_M11,U1_M11,ZSPAN_M11,X0_M11,X2_M11,X1_M11
2022-05-04 04:00:00,,0821.2,5.01,0.00,25.4,24.8,00.0,34.4,27.3,26.5,-002.2,0011.30,0007.18,0006.65
2022-05-04 04:01:00,,0821.1,4.99,0.00,25.4,24.8,00.0,34.4,27.3,26.5,-002.2,0011.35,0007.24,0006.71
2022-05-04 04:02:00,,0821.2,5.01,0.00,25.4,24.8,00.0,34.4,27.3,26.5,-002.4,0010.62,0007.30,0006.78
2022-05-04 04:03:00,,0821.3,4.99,0.00,25.4,24.8,00.0,34.4,27.3,26.4,-002.8,0010.45,0007.32,0006.85
2022-05-04 04:04:00,,0821.4,5.01,0.00,25.4,24.8,00.0,34.4,27.3,26.4,-003.0,0010.36,0007.36,0006.91
2022-05-04 04:05:00,,0821.4,5.00,0.00,25.4,24.8,00.0,34.4,27.3,26.4,-003.0,0010.08,0007.40,0006.97
2022-05-04 04:06:00,,0821.4,5.01,0.00,25.4,24.8,00.0,34.4,27.3,26.3,-002.7,0009.86,0007.44,0007.03
2022-05-04 04:07:00,,0821.5,5.00,0.00,25.4,24.8,00.0,34.4,27.3,26.3,-002.5,0009.88,0007.48,0007.07
2022-05-04 04:08:00,,0821.5,5.00,0.00,25.4,24.8,00.0,34.4,27.3,26.3,-002.3,0009.87,0007.50,0007.10
2022-05-04 04:09:00,,0821.6,5.01,0.00,25.4,24.8,00.0,34.4,27.3,26.3,-002.0,0009.90,0007.50,0007.10
2022-05-04 04:10:00,,0821.5,4.99,0.00,25.5,24.8,00.0,34.4,27.3,26.3,-001.7,0009.99,0007.52,0007.10
2022-05-04 04:11:00,,0821.5,5.02,0.00,25.5,24.8,00.0,34.4,27.3,26.2,-001.6,0009.98,0007.53,0007.10
2022-05-04 04:12:00,,0821.4,5.00,0.00,25.5,24.8,00.0,34.4,27.4,26.2,-001.6,0009.98,0007.53,0007.09
2022-05-04 04:13:00,,0821.4,4.98,0.00,25.5,24.8,00.0,34.4,27.4,26.2,-001.8,0009.96,0007.52,0007.09
2022-05-04 04:14:00,,0821.4,5.01,0.00,25.5,24.8,00.0,34.4,27.4,26.2,-001.7,0010.01,0007.53,0007.08
2022-05-04 04:15:00,,0821.4,4.99,0.00,25.5,24.8,00.0,34.4,27.4,26.2,-001.8,0010.02,0007.53,0007.07
2022-05-04 04:16:00,,0821.4,5.01,0.00,25.5,24.8,00.0,34.4,27.4,26.2,-002.0,0010.07,0007.52,0007.05
2022-05-04 04:17:00,,0821.4,5.00,0.00,25.5,24.8,00.0,34.4,27.3,26.2,-002.3,0009.92,0007.47,0007.01
2022-05-04 04:18:00,,0821.4,5.01,0.00,25.5,24.8,00.0,34.4,27.4,26.1,-002.4,0009.92,0007.45,0007.00
2022-05-04 04:19:00,,0821.5,4.99,0.00,25.5,24.8,00.0,34.4,27.4,26.2,-002.8,0009.90,0007.44,0006.99
2022-05-04 04:20:00,,0821.5,5.01,0.00,25.5,24.8,00.0,34.4,27.4,26.2,-002.9,0010.04,0007.47,0007.00
2022-05-04 04:21:00,,0821.7,4.98,0.00,25.5,24.9,00.0,34.4,27.4,26.2,-003.0,0010.48,0007.47,0006.98
2022-05-04 04:22:00,,0821.7,5.01,0.00,25.5,24.9,00.0,34.5,27.4,26.3,-003.0,0010.47,0007.46,0006.97
2022-05-04 04:23:00,,0821.7,5.00,0.00,25.5,24.9,00.0,34.5,27.4,26.2,-003.2,0010.43,0007.45,0006.96
2022-05-04 04:24:00,,0821.8,5.02,0.00,25.5,24.9,00.0,34.5,27.4,26.3,-003.0,0010.43,0007.41,0006.93
2022-05-04 04:25:00,,0821.9,4.99,0.00,25.6,24.9,00.0,34.5,27.4,26.2,-002.9,0010.35,0007.37,0006.91
2022-05-04 04:26:00,,0821.8,5.02,0.00,25.6,24.9,00.0,34.5,27.4,26.2,-002.3,0010.34,0007.35,0006.89
2022-05-04 04:27:00,,0821.8,4.98,0.00,25.6,24.9,00.0,34.5,27.5,26.2,-002.0,0010.29,0007.33,0006.87
2022-05-04 04:28:00,,0821.8,5.01,0.00,25.6,24.9,00.0,34.5,27.5,26.2,-001.6,0010.45,0007.38,0006.87
2022-05-04 04:29:00,,0821.8,4.99,0.00,25.6,24.9,00.0,34.5,27.5,26.1,-002.0,0010.46,0007.40,0006.86
2022-05-04 04:30:00,,0821.8,5.01,0.00,25.6,24.9,00.0,34.5,27.5,26.1,-002.1,0010.47,0007.39,0006.84
2022-05-04 04:31:00,,0821.8,4.99,0.00,25.6,24.9,00.0,34.5,27.5,26.1,-001.8,0010.26,0007.35,0006.82
2022-05-04 04:32:00,,0821.9,5.02,0.00,25.6,24.9,00.0,34.5,27.5,26.2,-001.4,0009.89,0007.36,0006.82
2022-05-04 04:33:00,,0822.1,4.99,0.00,25.7,24.9,00.0,34.5,27.5,26.2,-001.2,0009.94,0007.35,0006.81
2022-05-04 04:34:00,,0822.1,5.01,0.00,25.7,24.9,00.0,34.5,27.5,26.2,-001.2,0010.10,0007.39,0006.80
2022-05-04 04:35:00,,0822.1,4.99,0.00,25.7,24.9,00.0,34.5,27.5,26.5,-001.2,0010.20,0007.41,0006.79
2022-05-04 04:36:00,,0822.2,5.01,0.00,25.7,25.0,00.0,34.6,27.5,27.3,-001.4,0010.32,0007.46,0006.79
2022-05-04 04:37:00,,0822.3,5.00,0.00,25.7,25.0,00.0,34.6,27.5,26.6,-001.4,0010.45,0007.49,0006.79
2022-05-04 04:38:00,,0822.3,5.01,0.00,25.7,25.0,00.0,34.6,27.6,26.4,-001.3,0010.81,0007.54,0006.79
2022-05-04 04:39:00,,0822.3,5.00,0.00,25.7,25.0,00.0,34.6,27.6,26.4,-001.1,0010.96,0007.54,0006.79
2022-05-04 04:40:00,,0822.4,5.00,0.00,25.7,25.0,00.0,34.6,27.6,26.3,-000.4,0010.97,0007.55,0006.80
2022-05-04 04:41:00,,0822.5,5.01,0.00,25.7,25.0,00.0,34.6,27.6,26.3,-000.6,0011.00,0007.57,0006.81
2022-05-04 04:42:00,,0822.4,5.00,0.00,25.7,25.0,00.0,34.6,27.6,26.3,-000.8,0011.04,0007.58,0006.82
2022-05-04 04:43:00,,0822.5,5.01,0.00,25.8,25.0,00.0,34.6,27.6,26.3,-001.2,0011.02,0007.55,0006.82
2022-05-04 04:44:00,,0822.6,4.99,0.00,25.8,25.0,00.0,34.6,27.6,26.3,-001.3,0011.05,0007.55,0006.82
2022-05-04 04:45:00,,0822.5,5.01,0.00,25.8,25.0,00.0,34.7,27.6,26.3,-001.2,0010.93,0007.51,0006.83
2022-05-04 04:46:00,,0822.5,5.00,0.00,25.8,25.1,00.0,34.7,27.6,26.3,-001.3,0010.70,0007.47,0006.83
2022-05-04 04:47:00,,0822.5,5.00,0.00,25.8,25.1,00.0,34.7,27.7,26.2,-001.1,0010.60,0007.42,0006.82
2022-05-04 04:48:00,,0822.5,5.00,0.00,25.8,25.1,00.0,34.7,27.6,26.3,-001.1,0010.51,0007.41,0006.82
2022-05-04 04:49:00,,0822.5,5.00,0.00,25.8,25.0,00.0,34.7,27.6,26.2,-001.1,0010.25,0007.38,0006.83
2022-05-04 04:50:00,,0822.5,5.01,0.00,25.8,25.0,00.0,34.7,27.7,26.2,-001.0,0009.88,0007.32,0006.82
2022-05-04 04:51:00,,0822.6,4.99,0.00,25.8,25.0,00.0,34.7,27.7,26.2,-001.0,0009.92,0007.25,0006.79
2022-05-04 04:52:00,,0822.5,5.01,0.00,25.8,25.0,00.0,34.7,27.6,26.1,-000.9,0009.73,0007.14,0006.73
2022-05-04 04:53:00,,0822.5,4.98,0.00,25.8,25.0,00.0,34.7,27.6,26.1,-000.3,0009.57,0007.04,0006.66
2022-05-04 04:54:00,,0822.5,5.01,0.00,25.8,25.0,00.0,34.7,27.6,26.1,0000.1,0009.44,0006.98,0006.61
2022-05-04 04:55:00,,0822.4,5.01,0.00,25.8,25.0,00.0,34.7,27.6,26.0,0000.4,0009.13,0006.86,0006.52
2022-05-04 04:56:00,,0822.4,4.99,0.00,25.8,25.0,00.0,34.7,27.6,26.0,0000.1,0008.94,0006.76,0006.44
2022-05-04 04:57:00,,0822.4,5.01,0.00,25.8,25.0,00.0,34.7,27.6,26.0,-000.1,0008.87,0006.70,0006.38
2022-05-04 04:58:00,,0822.3,5.00,0.00,25.8,25.0,00.0,34.7,27.6,26.0,-000.5,0008.75,0006.63,0006.32
2022-05-04 04:59:00,,0822.3,4.99,0.00,25.8,25.0,00.0,34.7,27.6,26.0,-000.4,0008.66,0006.56,0006.27
